Location: Moscow
(55.7500°N, 37.5830°E)
Time: 03:52:18
(UTC+03:00)

M-CUBED/EXP-1 PRIME - Visible Passes

Search period start: 18 August 2022 00:00
Search period end: 28 August 2022 00:00
Orbit: 422 x 631 km, 101.7° (Epoch: 17 August)

Date Brightness Start Highest point End Pass type
(mag) Time Alt. Az. Time Alt. Az. Time Alt. Az.
18 Aug ? 01:56:41 10° ESE 02:00:35 32° NE 02:04:31 10° N visible
18 Aug ? 03:30:01 10° S 03:34:15 48° WSW 03:38:32 10° NNW visible
19 Aug ? 01:45:29 10° ESE 01:49:10 27° NE 01:52:49 10° N visible
19 Aug ? 03:18:19 10° S 03:22:40 63° WSW 03:27:03 10° NNW visible
20 Aug ? 01:34:22 10° E 01:37:45 22° NE 01:41:06 10° N visible
20 Aug ? 03:06:42 10° SSE 03:11:06 81° WSW 03:15:30 10° NNW visible
21 Aug ? 01:23:19 10° E 01:26:19 18° NE 01:29:18 10° N visible
21 Aug ? 02:55:08 10° SSE 02:59:33 79° ENE 03:03:55 10° NNW visible
21 Aug ? 04:30:42 10° SW 04:33:49 19° W 04:36:55 10° NW visible
22 Aug ? 01:12:22 10° ENE 01:14:54 15° NE 01:17:25 10° N visible
22 Aug ? 02:43:39 10° SE 02:47:59 62° ENE 02:52:18 10° NNW visible
22 Aug ? 04:18:31 10° SSW 04:22:05 24° W 04:25:38 10° NW visible
23 Aug ? 01:01:33 10° ENE 01:03:29 13° NE 01:05:24 10° NNE visible
23 Aug ? 02:32:12 10° SE 02:36:26 48° ENE 02:40:37 10° NNW visible
23 Aug ? 04:06:29 10° SSW 04:10:22 30° WSW 04:14:14 10° NW visible
24 Aug ? 00:51:05 10° NE 00:52:04 11° NE 00:53:02 10° NNE visible
24 Aug ? 02:20:49 10° SE 02:24:53 38° ENE 02:28:53 10° N visible
24 Aug ? 03:54:32 10° S 03:58:40 39° WSW 04:02:45 10° NW visible
25 Aug ? 02:09:29 10° ESE 02:13:20 31° NE 02:17:07 10° N visible
25 Aug ? 03:42:42 10° S 03:46:58 50° WSW 03:51:12 10° NNW visible
26 Aug ? 01:58:14 10° ESE 02:01:48 25° NE 02:05:17 10° N visible
26 Aug ? 03:30:55 10° SSE 03:35:18 66° WSW 03:39:35 10° NNW visible
27 Aug ? 01:47:02 10° E 01:50:15 21° NE 01:53:25 10° N visible
27 Aug ? 03:19:13 10° SSE 03:23:37 85° WSW 03:27:54 10° NNW visible
